FW1767 Weather Reports


time (UTC)temp
F
wind
direction
speed
knots
gust
knots
rain 1hr
in
rain 24hr
in
rain mn
in
humidity
%
barometer
mb
20260502194529 72 0.0 0.0 0.00 0.00 0.00 31 1014.9
20260502193027 71 0.0 0.0 0.00 0.00 0.00 32 1015.0
20260502191522 70 0.0 0.0 0.00 0.00 0.00 33 1015.3
20260502190019 68 0.0 0.0 0.00 0.00 0.00 34 1015.6
20260502184516 67 0.0 0.0 0.00 0.00 0.00 35 1015.7
20260502183011 65 0.0 0.0 0.00 0.00 0.00 36 1016.1
20260502181508 64 0.0 0.0 0.00 0.00 0.00 37 1016.2
20260502170109 55 0.0 0.0 0.00 0.00 0.00 40 1016.8
20260502163059 52 0.0 0.0 0.00 0.00 0.00 39 1016.6
20260502161600 50 0.0 0.0 0.00 0.00 0.00 38 1016.7
20260502151554 46 0.0 0.0 0.00 0.00 0.00 34 1016.7
20260502123046 48 0.0 0.0 0.00 0.00 0.00 30 1015.9
20260502121542 48 0.0 0.0 0.00 0.00 0.00 30 1015.6
20260502114534 49 0.0 0.0 0.00 0.00 0.00 29 1016.0
20260502113032 49 0.0 0.0 0.00 0.00 0.00 29 1016.1
20260502111537 50 0.0 0.0 0.00 0.00 0.00 28 1016.1
20260502110034 50 0.0 0.0 0.00 0.00 0.00 28 1016.1
20260502104528 51 0.0 0.0 0.00 0.00 0.00 28 1016.1
20260502103024 51 0.0 0.0 0.00 0.00 0.00 27 1015.7
20260502101521 52 0.0 0.0 0.00 0.00 0.00 27 1015.5
20260502091513 54 0.0 0.0 0.00 0.00 0.00 26 1015.4
20260502070052 60 0.0 0.0 0.00 0.00 0.00 22 1015.8
20260502064548 61 0.0 0.0 0.00 0.00 0.00 22 1015.4
20260502063048 62 0.0 0.0 0.00 0.00 0.00 21 1015.1
20260502061543 62 0.0 0.0 0.00 0.00 0.00 21 1015.1
20260502060040 63 0.0 0.0 0.00 0.00 0.00 20 1014.8
20260502054543 64 0.0 0.0 0.00 0.00 0.00 19 1014.9
20260502053039 65 0.0 0.0 0.00 0.00 0.00 19 1014.8
20260502051539 65 0.0 0.0 0.00 0.00 0.00 19 1014.6
20260502050038 66 0.0 0.0 0.00 0.00 0.00 18 1014.6
20260502044538 67 0.0 0.0 0.00 0.00 0.00 18 1014.7
20260502043038 68 0.0 0.0 0.00 0.00 0.00 17 1014.7
20260502041537 69 0.0 0.0 0.00 0.00 0.00 17 1014.6
20260502040036 70 0.0 0.0 0.00 0.00 0.00 17 1014.6
20260502034536 71 0.0 0.0 0.00 0.00 0.00 17 1014.4
20260502033043 73 0.0 0.0 0.00 0.00 0.00 17 1014.3
20260502031535 73 0.0 0.0 0.00 0.00 0.00 17 1014.1
20260502030034 74 0.0 0.0 0.00 0.00 0.00 17 1014.0
20260502024534 75 0.0 0.0 0.00 0.00 0.00 16 1013.8
20260502023034 76 0.0 0.0 0.00 0.00 0.00 16 1013.5
20260502021532 77 0.0 0.0 0.00 0.00 0.00 17 1013.4
20260502020033 77 0.0 0.0 0.00 0.00 0.00 18 1013.3
20260502014531 77 0.0 0.0 0.00 0.00 0.00 20 1013.2
20260502013033 78 0.0 0.0 0.00 0.00 0.00 20 1013.1
20260502011530 78 0.0 0.0 0.00 0.00 0.00 20 1013.1
20260502010029 78 0.0 0.0 0.00 0.00 0.00 20 1013.1
20260502004546 79 0.0 0.0 0.00 0.00 0.00 21 1013.2
20260502003028 79 0.0 0.0 0.00 0.00 0.00 21 1013.2
20260502001527 79 0.0 0.0 0.00 0.00 0.00 22 1013.3
20260502000041 79 0.0 0.0 0.00 0.00 0.00 22 1013.4
20260501234530 79 0.0 0.0 0.00 0.00 0.00 22 1013.5
20260501233023 79 0.0 0.0 0.00 0.00 0.00 23 1013.6
20260501231535 79 0.0 0.0 0.00 0.00 0.00 23 1013.7
20260501230023 79 0.0 0.0 0.00 0.00 0.00 24 1014.0
20260501224516 79 0.0 0.0 0.00 0.00 0.00 24 1014.1
20260501223013 78 0.0 0.0 0.00 0.00 0.00 25 1014.3
20260501221510 78 0.0 0.0 0.00 0.00 0.00 25 1014.5
20260501220008 77 0.0 0.0 0.00 0.00 0.00 25 1014.7
20260501214504 77 0.0 0.0 0.00 0.00 0.00 26 1014.8
20260501213001 76 0.0 0.0 0.00 0.00 0.00 26 1015.0
20260501211558 75 0.0 0.0 0.00 0.00 0.00 26 1015.1
20260501210058 74 0.0 0.0 0.00 0.00 0.00 26 1015.2
20260501204554 74 0.0 0.0 0.00 0.00 0.00 26 1015.3
20260501203052 73 0.0 0.0 0.00 0.00 0.00 27 1015.4
20260501201548 72 0.0 0.0 0.00 0.00 0.00 27 1015.5
20260501200045 71 0.0 0.0 0.00 0.00 0.00 28 1015.6